[[{"header":{"parameterUnit":"m.s-1","parameterCategory":1,"la1":30.2991,"la2":30.254,"lo1":-89.0895,"lo2":-89.0444,"dy":0.0017,"dx":0.0017,"nx":28,"ny":28,"refTime":"2025-04-27T03:00:00:Z","depth":0,"parameterNumber":2,"parameterNumberName":"U-component_of_WINDS"},"data":[0,0,0,0,0,0,0,0,0,0,0,0,0,0,0,0,0,0,0,0,0,0,0,0,0,0,0,0,0,0,0,0,0,0,0,0,0,0,0,0,0,0,0,0,0,0,0,0,0,0,0,0,0,0,0,0,0,0,0.7458,0.7459,0,0.7611,0.7612,0.7614,0.7666,0.7665,0.7664,0.7664,0.7823,0.7827,0.7832,0,0,0,0,0,0,0,0,0,0,0,0,0,0.7212,0.7216,0.7457,0.7459,0.7461,0.761,0.7612,0.7615,0.7666,0.7665,0.7664,0.7663,0.7821,0.7827,0.7833,0,0,0,0,0,0,0,0,0,0,0,0,0,0.7337,0.7217,0.7457,0.7505,0.7511,0.761,0.7612,0.7615,0.7666,0.7665,0.7664,0.7663,0.7819,0.7826,0.7833,0.7897,0,0,0.7856,0.7859,0,0,0,0,0,0,0,0,0.733,0.7346,0.7496,0.7502,0.7508,0.7618,0.7584,0.771,0.7666,0.7607,0.7664,0.7663,0.7756,0.7768,0.7799,0.7905,0.7911,0.7856,0.7861,0.7864,0.7866,0,0,0,0,0,0,0,0.7321,0.734,0.7518,0.7498,0.7506,0.7519,0.7536,0.7608,0.7685,0.7612,0.7616,0.7633,0.7759,0.7792,0.7803,0.7914,0.7856,0.7862,0.7867,0.787,0.808,0.8081,0,0,0,0,0,0,0.7304,0.7332,0.7513,0.7523,0.7415,0.7524,0.7543,0.7584,0.7684,0.7698,0.7634,0.7635,0.778,0.7794,0.7809,0.789,0.7864,0.787,0.7875,0.8079,0.808,0.8082,0,0,0,0,0,0,0.7298,0.732,0.7507,0.7429,0.7453,0.753,0.7575,0.7587,0.762,0.7701,0.7715,0.7653,0.778,0.7799,0.7875,0.7896,0.7874,0.788,0.8077,0.8079,0.8081,0.8053,0,0,0,0,0,0,0.7291,0.7317,0.7342,0.7429,0.7457,0.757,0.7576,0.7591,0.7632,0.7635,0.7723,0.7736,0.778,0.7864,0.7882,0.7906,0.7886,0.8076,0.8078,0.8081,0.8052,0.8054,0.8055,0,0,0,0,0,0.7282,0.7328,0.7343,0.7364,0.7489,0.7571,0.7587,0.7636,0.7634,0.7659,0.7711,0.7734,0.7891,0.7871,0.7892,0.7918,0.8075,0.8078,0.808,0.8052,0.8053,0.8055,0,0,0,0,0,0,0.7242,0.734,0.7358,0.7433,0.7493,0.7579,0.7613,0.7636,0.7699,0.7699,0.7758,0.7778,0.7849,0.7892,0.7868,0.7986,0.7984,0.7991,0.7955,0.7957,0.7959,0.7947,0.7892,0,0,0,0,0,0.7242,0.7299,0.7382,0.744,0.747,0.7536,0.7573,0.7606,0.7671,0.7697,0.7754,0.7817,0.7881,0.7922,0.7985,0.8059,0.8079,0.8088,0.8089,0.8089,0.8095,0.8137,0.8142,0.8091,0.8091,0.8091,0,0,0.7242,0.7303,0.7335,0.7434,0.7484,0.7543,0.7557,0.7618,0.7663,0.7706,0.7782,0.7826,0.79,0.7975,0.8012,0.8013,0.8113,0.8093,0.8093,0.8098,0.8141,0.8145,0.815,0.8093,0.8093,0.8092,0,0,0.7272,0.7324,0.7378,0.7429,0.7505,0.7549,0.7562,0.7645,0.7676,0.7752,0.7786,0.784,0.7949,0.8,0.804,0.8091,0.8114,0.811,0.8116,0.8157,0.8161,0.8165,0.8183,0.8189,0.8115,0.8115,0.8115,0,0.7263,0.7352,0.7403,0.7463,0.7505,0.7548,0.7603,0.765,0.7743,0.7772,0.7772,0.7909,0.7962,0.805,0.8062,0.8094,0.8111,0.81,0.8156,0.8161,0.8165,0.8183,0.819,0.8114,0.8114,0.8114,0.8114,0,0.7337,0.7398,0.7433,0.7521,0.7568,0.7625,0.7686,0.7727,0.7756,0.78,0.7877,0.7943,0.802,0.8043,0.8072,0.8136,0.8134,0.8145,0.8144,0.8168,0.8186,0.8193,0.8113,0.8113,0.8113,0.8114,0,0,0.7345,0.7462,0.7473,0.7514,0.7602,0.765,0.771,0.7785,0.7819,0.7882,0.7934,0.8025,0.8035,0.8081,0.8116,0.8152,0.8188,0.8159,0.8161,0.8162,0.8262,0.8253,0.826,0.8204,0.8206,0.8207,0.8256,0,0.7387,0.7494,0.7543,0.7629,0.7686,0.7727,0.778,0.7839,0.7882,0.7938,0.7986,0.8049,0.8058,0.8086,0.8123,0.8176,0.8209,0.8173,0.8253,0.8256,0.8233,0.827,0.8261,0.8304,0.8263,0.8265,0.8265,0,0.7449,0.7512,0.7603,0.7684,0.771,0.7756,0.7829,0.7881,0.795,0.7979,0.803,0.8064,0.8129,0.8125,0.8215,0.819,0.8226,0.8256,0.8259,0.8268,0.8261,0.828,0.8319,0.8325,0.8277,0.8276,0.8275,0,0.7445,0.7553,0.7622,0.7656,0.7752,0.7783,0.7825,0.7893,0.7935,0.7999,0.8027,0.8097,0.8136,0.8191,0.8243,0.8235,0.8329,0.8329,0.8355,0.8354,0.8372,0.837,0.8418,0.8396,0.8396,0.8396,0.8396,0,0.7486,0.7541,0.7622,0.7664,0.7726,0.7782,0.7842,0.7887,0.7947,0.8,0.804,0.8088,0.8155,0.8212,0.8253,0.8322,0.834,0.8365,0.8375,0.8361,0.8358,0.8385,0.8383,0.8398,0.8397,0.8397,0.8397,0,0.7492,0.7549,0.7627,0.7712,0.7734,0.7776,0.785,0.7893,0.7938,0.8003,0.8022,0.8093,0.8162,0.822,0.8311,0.8339,0.8411,0.8423,0.8387,0.8392,0.8415,0.8412,0.8481,0.8493,0.8464,0.8464,0.8464,0,0.7514,0.7557,0.7647,0.7684,0.7725,0.7786,0.7829,0.7886,0.7929,0.8011,0.8044,0.8116,0.8176,0.8285,0.8345,0.8415,0.843,0.8449,0.844,0.8425,0.843,0.8426,0.8431,0.8449,0.845,0.845,0.845,0,0.7547,0.7573,0.7634,0.7704,0.7754,0.7812,0.7872,0.79,0.7968,0.8015,0.8086,0.8133,0.8226,0.8297,0.8373,0.8417,0.8445,0.8452,0.8462,0.8447,0.8425,0.8437,0.8388,0.845,0.845,0.845,0.845,0.845,0.7562,0.7602,0.7672,0.7738,0.7788,0.7843,0.7887,0.7938,0.7998,0.8078,0.8108,0.818,0.8249,0.8355,0.8399,0.8457,0.8461,0.8475,0.8478,0.8481,0.8479,0.8416,0.8471,0.8471,0.8472,0.8472,0.8472,0,0.7597,0.7644,0.7704,0.7786,0.7838,0.7859,0.7926,0.7968,0.8031,0.8093,0.8152,0.8233,0.8303,0.8368,0.8441,0.8475,0.849,0.8492,0.849,0.85,0.8471,0.8456,0.8479,0.8479,0.8479,0.8479,0.8479,0.8479,0.7621,0.769,0.7724,0.7819,0.7866,0.7937,0.7973,0.8024,0.8074,0.8163,0.822,0.8263,0.8326,0.8404,0.8469,0.8487,0.8512,0.8511,0.8532,0.8504,0.8502,0.8501,0.8486,0.8516,0.8516,0.8556,0.8556,0.8556]},{"header":{"parameterUnit":"m.s-1","parameterCategory":1,"la1":30.2991,"la2":30.254,"lo1":-89.0895,"lo2":-89.0444,"dy":0.0017,"dx":0.0017,"nx":28,"ny":28,"refTime":"2025-04-27T03:00:00:Z","depth":0,"parameterNumber":3,"parameterNumberName":"V-component_of_WINDS"},"data":[0,0,0,0,0,0,0,0,0,0,0,0,0,0,0,0,0,0,0,0,0,0,0,0,0,0,0,0,0,0,0,0,0,0,0,0,0,0,0,0,0,0,0,0,0,0,0,0,0,0,0,0,0,0,0,0,0,0,4.2049,4.2048,0,4.2006,4.2005,4.2005,4.1939,4.1938,4.1937,4.1936,4.189,4.189,4.189,0,0,0,0,0,0,0,0,0,0,0,0,0,4.2074,4.2074,4.2049,4.2048,4.2048,4.2006,4.2005,4.2004,4.1939,4.1938,4.1937,4.1935,4.189,4.189,4.189,0,0,0,0,0,0,0,0,0,0,0,0,0,4.205,4.2074,4.2049,4.201,4.2006,4.2006,4.2005,4.2004,4.194,4.1938,4.1936,4.1935,4.1891,4.189,4.189,4.1923,0,0,4.1889,4.1889,0,0,0,0,0,0,0,0,4.2052,4.205,4.2016,4.2013,4.2008,4.1976,4.1997,4.1977,4.194,4.1965,4.1936,4.1934,4.192,4.1917,4.1913,4.1921,4.1919,4.1889,4.1889,4.1889,4.1889,0,0,0,0,0,0,0,4.2054,4.2051,4.2031,4.2016,4.2011,4.1995,4.199,4.1993,4.1953,4.1963,4.1958,4.1954,4.1918,4.1913,4.1912,4.1919,4.1889,4.1889,4.1889,4.1889,4.1953,4.1955,0,0,0,0,0,0,4.2061,4.2053,4.2033,4.203,4.2026,4.1996,4.199,4.1988,4.1953,4.1945,4.1955,4.1951,4.1915,4.1912,4.191,4.1947,4.1889,4.1889,4.1889,4.1951,4.1954,4.1956,0,0,0,0,0,0,4.2062,4.206,4.2035,4.204,4.2036,4.1997,4.1996,4.1988,4.1984,4.1947,4.1939,4.1958,4.1913,4.191,4.1921,4.1945,4.1889,4.1889,4.1949,4.1952,4.1955,4.2022,0,0,0,0,0,0,4.2063,4.2061,4.2073,4.2041,4.2036,4.2047,4.1997,4.1989,4.1984,4.1978,4.1948,4.1941,4.1912,4.1922,4.1921,4.1943,4.1889,4.1947,4.1951,4.1954,4.2017,4.2027,4.2035,0,0,0,0,0,4.2064,4.2093,4.2074,4.2072,4.205,4.2048,4.2045,4.2011,4.1986,4.1998,4.1975,4.1942,4.1942,4.1923,4.1922,4.1945,4.1945,4.195,4.1953,4.2014,4.2025,4.2034,0,0,0,0,0,0,4.2128,4.2088,4.2066,4.2086,4.2071,4.2037,4.2051,4.2024,4.2015,4.201,4.1967,4.1961,4.1978,4.1962,4.1941,4.1976,4.1939,4.1943,4.1985,4.1995,4.2004,4.2007,4.1888,0,0,0,0,0,4.2144,4.2146,4.2111,4.2132,4.2126,4.209,4.2088,4.2063,4.2046,4.2039,4.2016,4.2,4.1997,4.1995,4.199,4.2015,4.2008,4.203,4.2039,4.2046,4.205,4.2063,4.2073,4.1969,4.1969,4.1969,0,0,4.2178,4.2157,4.216,4.2144,4.213,4.2133,4.2085,4.209,4.2092,4.2039,4.2049,4.2032,4.2011,4.203,4.2037,4.2017,4.2077,4.2051,4.2057,4.2057,4.2068,4.2078,4.2087,4.1972,4.1971,4.1971,0,0,4.2241,4.2225,4.2241,4.2228,4.2207,4.2183,4.2188,4.2158,4.2145,4.2154,4.2115,4.2116,4.2111,4.2098,4.2091,4.2152,4.2122,4.2151,4.2196,4.2209,4.2217,4.2224,4.2246,4.2255,4.2155,4.2155,4.2155,0,4.2286,4.2289,4.2253,4.226,4.2255,4.2208,4.2224,4.2213,4.2192,4.2189,4.2168,4.2161,4.2144,4.2159,4.2174,4.217,4.2173,4.2154,4.2219,4.2226,4.2232,4.2252,4.2261,4.2159,4.2159,4.2158,4.2158,0,4.2345,4.2348,4.2363,4.2345,4.2341,4.2353,4.2318,4.2319,4.2294,4.2273,4.2283,4.2261,4.2251,4.2253,4.2229,4.2266,4.2254,4.2227,4.2189,4.2246,4.2265,4.2272,4.2164,4.2163,4.2162,4.2161,0,0,4.2447,4.2409,4.2415,4.2406,4.238,4.2382,4.2392,4.2383,4.2384,4.2371,4.2379,4.2376,4.2351,4.2343,4.2318,4.2329,4.238,4.23,4.2299,4.2316,4.2419,4.2441,4.245,4.236,4.2361,4.2362,4.2421,0,4.2505,4.252,4.2488,4.2511,4.2514,4.2471,4.248,4.2465,4.2446,4.2445,4.2423,4.2423,4.2389,4.2384,4.2394,4.2372,4.24,4.2367,4.2367,4.2367,4.2373,4.246,4.2482,4.2539,4.2428,4.243,4.243,0,4.2575,4.2566,4.259,4.2564,4.2564,4.2572,4.2562,4.2562,4.2545,4.253,4.2522,4.2492,4.2501,4.2465,4.2476,4.2454,4.2453,4.2442,4.2443,4.2442,4.2402,4.2461,4.2556,4.2565,4.2441,4.2441,4.244,0,4.2647,4.2642,4.2655,4.2649,4.2619,4.2626,4.2614,4.2595,4.2592,4.2583,4.2581,4.2573,4.2568,4.2563,4.2532,4.2509,4.2547,4.2508,4.2535,4.2536,4.2545,4.2545,4.2642,4.2544,4.2544,4.2544,4.2544,0,4.2716,4.2732,4.2688,4.2696,4.2713,4.2677,4.2695,4.2678,4.2662,4.2666,4.2628,4.2633,4.2592,4.2593,4.2569,4.2582,4.258,4.2569,4.2562,4.2573,4.2574,4.2571,4.2566,4.2546,4.2546,4.2545,4.2545,0,4.2799,4.277,4.2782,4.2753,4.2746,4.276,4.2735,4.2742,4.2721,4.2727,4.2727,4.2693,4.2693,4.2661,4.2654,4.2637,4.2661,4.2647,4.2667,4.2663,4.2692,4.269,4.2789,4.2801,4.2696,4.2697,4.2698,0,4.2845,4.2857,4.2829,4.283,4.282,4.2821,4.2818,4.2783,4.2781,4.2763,4.2773,4.2769,4.2764,4.2764,4.2739,4.2734,4.2719,4.2755,4.2718,4.2728,4.2721,4.272,4.2722,4.2763,4.2764,4.2765,4.2766,0,4.293,4.2915,4.2912,4.2905,4.2903,4.2895,4.2885,4.2888,4.2849,4.285,4.2849,4.2845,4.2838,4.2835,4.2825,4.2812,4.2783,4.2778,4.2784,4.2794,4.2806,4.2801,4.2689,4.2775,4.2774,4.2774,4.2773,4.2773,4.2996,4.3005,4.2987,4.2986,4.2975,4.2967,4.2972,4.2952,4.2951,4.2942,4.2922,4.2924,4.2908,4.2891,4.2881,4.2883,4.2865,4.2874,4.2876,4.2879,4.2885,4.2806,4.2881,4.2881,4.288,4.288,4.288,0,4.3079,4.3066,4.3065,4.3053,4.3052,4.3025,4.3013,4.3014,4.3017,4.3004,4.3001,4.3,4.2997,4.2973,4.2967,4.2973,4.296,4.2973,4.2972,4.297,4.2901,4.2896,4.2984,4.2984,4.2984,4.2984,4.2984,4.2984,4.3122,4.3136,4.3119,4.3128,4.3114,4.3117,4.3112,4.3105,4.3095,4.3096,4.3094,4.3078,4.3061,4.3054,4.305,4.3043,4.3043,4.3061,4.305,4.2985,4.2975,4.2965,4.2961,4.3061,4.3061,4.3119,4.3119,4.312]}]]